Estación Meteorológica Peña el Pijo (Robertgarden) [ 09/29/20 11:24:41 CEST ]

Fecha Hora Presion(HPa) Temp (°C) Humedad % Rocio (°C) Viento ( m/s) Direccion Lluvia 1Hora(mm) Lluvia 24H(mm) LLuvia Total(mm)
2020-Jan-27 01:09:15 1012.900 - - - - N     39.88
2020-Jan-27 02:09:47 1012.800 - - - - N     39.88
2020-Jan-27 03:09:36 1012.500 - - - - N     39.88
2020-Jan-27 04:11:06 1011.900 - - - - N     39.88
2020-Jan-27 05:09:13 1011.800 - - - - N     39.88
2020-Jan-27 06:09:15 1011.700 - - - - N     39.88
2020-Jan-27 07:09:17 1011.800 - - - - N     39.88
2020-Jan-27 08:09:13 1012.000 - - - - N     39.88
2020-Jan-27 09:08:58 1012.300 - - - - N     39.88
2020-Jan-27 10:09:03 1012.500 - - - - N     39.88
2020-Jan-27 11:09:02 1012.300 - - - - N     39.88
2020-Jan-27 12:08:53 1012.000 - - - - N     39.88
2020-Jan-27 13:09:16 1011.800 - - - - N     39.88
2020-Jan-27 14:09:17 1010.900 - - - - N     39.88
2020-Jan-27 15:09:23 1010.300 - - - - N     39.88
2020-Jan-27 16:09:37 1010.200 - - - - N     39.88
2020-Jan-27 17:09:11 1010.600 - - - - N     39.88
2020-Jan-27 18:09:10 1010.800 - - - - N     39.88
2020-Jan-27 19:09:13 1011.200 - - - - N     39.88
2020-Jan-27 20:09:09 1011.900 - - - - N     39.88
2020-Jan-27 21:09:02 1012.200 - - - - N     39.88
2020-Jan-27 22:09:23 1012.300 - - - - N     39.88
2020-Jan-27 23:09:02 1012.700 - - - - N     39.88

Temperatura Máxima:    Temperatura Mínima:
Presión Máxima:1012.900 Hpa    Presión Mínima:1010.200 Hpa


Volver